Regional Weather Roundup
Issued by NWS Grand Forks, ND

Home | Current Version | Previous Version | Text Only | Print | Product List | Glossary Off
Versions: 1 2 3 4 5 6 7 8 9 10 11 12 13 14 15 16 17 18 19 20 21 22 23 24 25 26 27 28 29 30 31 32 33 34 35 36 37 38 39 40 41 42 43 44 45 46 47 48 49 50

000
ASUS43 KFGF 051310
RWRFGF
PRAIRIE TO PINES  WEATHER ROUNDUP
NATIONAL WEATHER SERVICE EASTERN NORTH DAKOTA/GRAND FORKS ND
800 AM CDT THU MAY 05 2016

 **SATELLITE DATA USED TO AUGMENT SKY COVER AT AUTOMATED STATIONS**
 *****  WEATHER ACROSS EASTERN NORTH DAKOTA  *****

CITY           SKY/WX    TMP DP  RH WIND       PRES   REMARKS
GRAND FORKS    MOSUNNY   58  39  49 S10       29.84S
GRAND FRKS AFB SUNNY     68  43  40 W18       29.83R
DEVILS LAKE    SUNNY     60  46  59 W10       29.88R
FARGO          SUNNY     57  34  41 S12       29.91R
WAHPETON ARPT  SUNNY     52  32  46 S12       29.96S
$$

 ***** WEATHER ACROSS CENTRAL AND WESTERN NORTH DAKOTA  *****

CITY           SKY/WX    TMP DP  RH WIND       PRES   REMARKS
BISMARCK       SUNNY     61  46  57 SW3       29.93R
MINOT          SUNNY     68  42  38 SW18      29.85R
JAMESTOWN      SUNNY     62  43  49 W9        29.90S
MINOT AFB      SUNNY     66  45  45 SW16G23   29.83R HAZE
GARRISON         N/A     58  44  60 CALM      29.89S
WILLISTON      SUNNY     56  46  69 SW3       29.86R
DICKINSON      SUNNY     56  42  59 S9        29.90S
HETTINGER      SUNNY     53  43  68 S3        29.95F
$$

 *****  OTHER AIRPORT OBSERVATIONS IN OUR AREA  *****

CITY           SKY/WX    TMP DP  RH WIND       PRES   REMARKS
WALHALLA       FAIR      68  45  42 W21G30    29.77S
GRAFTON AIRPOR FAIR      66  48  52 W18       29.82S
VALLEY CITY AR FAIR      59  45  58 SW7       29.92S
CANDO          FAIR      59  46  63 W9        29.88S
CAVALIER APRT  FAIR      72  45  37 W24G40    29.78S
GWINNER        FAIR      54  39  58 SW15      29.94S
ROLLA          FAIR      64  41  42 W18       29.85S
 ***** THE ABOVE OBSERVATIONS ARE NON NWS ARE NOT QUALITY
       CONTROLLED AND MAY MIS-REPORT RAIN FOR SNOW...
$$

  *****  WEATHER ACROSS NORTHERN MINNESOTA  *****

CITY           SKY/WX    TMP DP  RH WIND       PRES   REMARKS
FLAG ISLAND    SUNNY     48  37  66 S15       29.81F
WARROAD        SUNNY     55  36  47 S10G18    29.84F
ROSEAU         SUNNY     57  36  44 S16       29.83S
HALLOCK        MOSUNNY   59  37  44 S13       29.80S
THF RVR FALLS  SUNNY     57  34  41 S14       29.89S
BAUDETTE       SUNNY     55  34  45 S13       29.87F
WASKISH        SUNNY     57  30  35 S10G18    29.90F
CROOKSTON      SUNNY     57  36  44 S15       29.88F
STEPHEN NDAWN    N/A     57  37  47 S10         N/A
GREENBUSH NDAW   N/A     57  37  47 S10         N/A
$$
  *****  WEATHER ACROSS CENTRAL AND WEST MINNESOTA  *****

CITY           SKY/WX    TMP DP  RH WIND       PRES   REMARKS
FOSSTON        MOSUNNY   59  28  31 S16       29.92F
BEMIDJI        MOSUNNY   54  28  37 S10       29.95F
PARK RAPIDS    PTSUNNY   49  28  44 E7        30.01R
ELBOW LAKE     FAIR      54  35  48 S12       29.99F
WADENA         MOSUNNY   54  32  43 SE5       30.00S
DETROIT LAKES  SUNNY     54  36  50 S9        29.97S
MOORHEAD       SUNNY     55  34  44 S15       29.93S
FERGUS FALLS   SUNNY     55  36  47 S12       29.95F
MORRIS MN      SUNNY     52  36  54 SE8       30.00S
STAPLES        MOSUNNY   43  34  70 S6        30.01F
$$
  *****  WEATHER ELSEWHERE ACROSS MINNESOTA  *****

CITY           SKY/WX    TMP DP  RH WIND       PRES   REMARKS
DULUTH         LGT RAIN  43  35  73 S6        30.01R
INTRNTL FALLS  PTSUNNY   48  35  60 S7        29.90R
ELY            CLOUDY    45  34  65 S6        29.97S
CLOQUET        RAIN      43  36  75 W3        30.02R
WHEATON        SUNNY     57  39  51 SE10      29.99S
BRAINERD       MOSUNNY   49  30  48 S3        30.04R
HIBBING        CLOUDY    42  33  70 SW5       30.00R
ALEXANDRIA     MOSUNNY   53  36  52 S7        30.03R
SAINT CLOUD    MOSUNNY   49  31  49 S12       30.03F
MINNEAPOLIS    PTSUNNY   51  30  44 CALM      30.07R
$$

  *****  WEATHER ACROSS SOUTH DAKOTA  *****

CITY           SKY/WX    TMP DP  RH WIND       PRES   REMARKS
SIOUX FALLS    MOSUNNY   48  43  82 CALM      30.06R
BROOKINGS      SUNNY     47  39  74 CALM      30.03S
WATERTOWN      SUNNY     48  38  68 S7        30.01S
HURON          SUNNY     52  43  71 S5        30.01R
SISSETON         N/A     64  38  38 W12       29.94S
ABERDEEN       SUNNY     49  41  74 S9        29.98R
MITCHELL       SUNNY     53  43  68 S3        30.04R
PIERRE         SUNNY     51  44  77 E3        29.98S
MOBRIDGE       SUNNY     54  46  74 SE10      29.94R
RAPID CITY     SUNNY     49  43  80 E3        29.96S
$$

  *****  SOME WEATHER IN NEARBY STATES *****

CITY           SKY/WX    TMP DP  RH WIND       PRES   REMARKS
GLASGOW MT     SUNNY     55  42  61 SE12      29.81S
GREAT FALLS MT CLOUDY    45  39  79 W7        29.89R
CHEYENNE WY    CLOUDY    47  36  65 W8        30.15S
SCOTTSBLUFF NE SUNNY     54  43  66 E5        30.06S
OMAHA NE       MOSUNNY   50  44  80 CALM      30.08R
DES MOINES IA  MOSUNNY   52  33  48 E5        30.08R
DAVENPORT IA   SUNNY     45  35  68 N15       30.05R
CHICAGO IL     MOSUNNY   44  35  70 N12       29.97R
EAU CLAIRE WI  SUNNY     42  36  79 CALM      30.07R
LA CROSSE WI   SUNNY     47  35  63 NW3       30.07R
$$

  *****  SOME NATIONAL WEATHER *****

CITY           SKY/WX    TMP DP  RH WIND       PRES   REMARKS
LA GUARDIA NY  CLOUDY    50  44  80 NE14      29.70S
RALEIGH NC     PTSUNNY   59  56  89 NW6       29.57R
ATLANTA GA     MOSUNNY   53  44  71 NW16G22   29.79R
NEW ORLEANS LA SUNNY     70  58  65 N9        29.93R
OKLAHOMA CITY  SUNNY     56  46  69 NW5       30.11R
ALBUQUERQUE NM CLEAR     54  24  31 N12       30.21R
SALT LAKE CITY CLOUDY    64  34  32 SE12      29.92F
LOS ANGELES CA CLOUDY    60  52  74 NW3       29.90S
BOISE ID       PTCLDY    56  44  64 W7        29.88S
SEATTLE WA     MOCLDY    49  43  80 N7        30.03S
$$

*** WEATHER ACROSS MANITOBA...SASKATCHEWAN AND ONTARIO ***
                ***ONTARIO***

CITY           SKY/WX    TMP DP  RH WIND       PRES   REMARKS
GERALDTON      PTSUNNY   37  34  87 S6        29.92F
THUNDER BAY    PTSUNNY   41  34  75 CALM      29.99R
SIOUX LOOKOUT  PTSUNNY   50  36  57 S7        29.82R
TORONTO        CLOUDY    50  45  81 NE9       29.83R
BIG TROUT LK   SUNNY     46  32  57 W7        29.65R
PICKLE LAKE    MOSUNNY   50  32  50 SW12G17   29.75F
DRYDEN         SUNNY     50  34  53 SW12      29.82S
KENORA         MOSUNNY   54  34  47 SW15G23   29.80F
$$
                *** MANITOBA***

CITY           SKY/WX    TMP DP  RH WIND       PRES   REMARKS
BRANDON        MOSUNNY   59  43  55 SW15      29.78S
DAUPHIN        SUNNY     70  41  35 W10       29.71R
ISLAND LAKE    NOT AVBL
PILOT MOUND    NOT AVBL
THE PAS        PTSUNNY   57  43  58 W8        29.57R
THOMPSON       CLOUDY    41  30  65 NE14G29   29.69R
WINNIPEG       MOSUNNY   63  43  48 SW10      29.72F
LYNN LAKE      MOSUNNY   41  32  70 E13G21    29.68R
CHURCHILL      PTSUNNY   23  18  80 NE14      29.92R WCI  11
GILLAM         CLOUDY    32  27  80 NE13G23   29.79R WCI  22
$$
                ***SASKATCHEWAN***

CITY           SKY/WX    TMP DP  RH WIND       PRES   REMARKS
ESTEVAN        CLOUDY    59  45  58 SW7       29.82R
KINDERSLEY     PTSUNNY   52  41  66 SW8       29.73R
LLOYDMINSTER   CLOUDY    55  39  54 N12       29.80R
PRINCE ALBERT  MOSUNNY   55  45  67 W3        29.70R
REGINA         NOT AVBL
YORKTON        SUNNY     57  43  58 S7        29.73R
N. BATTLEFORD  SUNNY     55  39  54 CALM      29.75R
LA RONGE       PTSUNNY   61  41  48 W10       29.68R
SASKATOON      PTSUNNY   61  43  51 SW10      29.73R
SWIFT CURRENT  MOSUNNY   61  39  44 SW12G18   29.79S
$$
NOTE: THESE ARE AUTOMATED STATIONS WITH LIMITED QUALITY CONTROL
      "FAIR" INDICATES FEW OR NO CLOUDS BELOW 12,000 FEET WITH NO
      SIGNIFICANT WEATHER AND/OR OBSTRUCTIONS TO VISIBILITY.
      SKY/WX - SKY CONDITION AND SIGNIFICANT WEATHER.
      TMP - AIR TEMPERATURE.    DP   - DEWPOINT TEMPERATURE.
      RH  - RELATIVE HUMIDITY.  PRES - PRESSURE.
      HX  - HEAT INDEX.         WCI  - WIND CHILL INDEX.
$



USA.gov is the U.S. government's official web portal to all federal, state and local government web resources and services.